Location: Dreilärchen
(47.9312°N, 8.6113°E)
Time: 02:49:19
(UTC+00:00)

Cosmos 1975 Rocket - Pass Details

Date: 26 May 2022
Orbit: 603 x 633 km, 82.5° (Epoch: 26 June)

Event Time Altitude Azimuth Distance (km) Brightness Sun altitude
Exits shadow 00:39:41 35° 162° (SSE) 1,011 3.7 -18.8°
Maximum altitude 00:41:22 62° 96° (E) 709 3.3 -18.7°
Drops below altitude 10° 00:45:47 10° 16° (NNE) 2,021 7.0 -18.5°
Sets 00:48:04 0° 13° (NNE) 2,937 8.2 -18.4°
